Regional Weather Roundup
Issued by NWS Little Rock, AR

Home | Current Version | Previous Version | Graphics & Text | Print | Product List | Glossary On
Versions: 1 2 3 4 5 6 7 8 9 10 11 12 13 14 15 16 17 18 19 20 21 22 23 24 25 26 27 28 29 30 31 32
000
ASUS44 KLZK 161405
RWRLZK

WEATHER ROUNDUP FOR ARKANSAS
NATIONAL WEATHER SERVICE LITTLE ROCK AR
800 AM CST MON JAN 16 2017

NOTE: "FAIR" INDICATES FEW OR NO CLOUDS BELOW 12,000 FEET WITH NO
SIGNIFICANT WEATHER AND/OR OBSTRUCTIONS TO VISIBILITY.

ARZ001-003-010-029-161500-
NORTHWEST ARKANSAS

CITY           SKY/WX    TMP DP  RH WIND       PRES   REMARKS
FAYETTEVILLE   CLOUDY    56  55  97 S9G25     29.93R
FORT SMITH     CLOUDY    50  48  93 NE10      29.94S FOG
HARRISON       LGT RAIN  48  48 100 SE12      29.99R VSB 1/2
BENTONVILLE    CLOUDY   N/A N/A N/A S12       29.92R
ROGERS         CLOUDY    56  53  90 S9        29.93R
SILOAM SPGS    CLOUDY    55  52  88 S14       29.91S
HIGHFILL       MOCLDY    57  54  89 S16       29.91R
SPRINGDALE     CLOUDY    57  55  94 S13G18    29.94R
$$

ARZ004-005-016-161500-
NORTH CENTRAL ARKANSAS

CITY           SKY/WX    TMP DP  RH WIND       PRES   REMARKS
BATESVILLE     CLOUDY    45  43  93 CALM      30.10S VSB<1/4
FLIPPIN        CLOUDY    45  41  87 E5        30.00S
MTN HOME       CLOUDY    45  45 100 SE8       30.02R FOG
$$

ARZ040-041-161500-
WEST CENTRAL ARKANSAS

CITY           SKY/WX    TMP DP  RH WIND       PRES   REMARKS
MENA           CLOUDY    63  63 100 S8        29.94S
MOUNT IDA      CLOUDY    60  57  89 VRB7G23   29.95R
$$

ARZ009-017-025-026-028-161500-
NORTHEAST ARKANSAS

CITY           SKY/WX    TMP DP  RH WIND       PRES   REMARKS
JONESBORO      CLOUDY    47  47 100 NE6       30.11S FOG
NEWPORT        FOG       46  46 100 CALM        N/A  VSB 1/2
WALNUT RIDGE   CLOUDY    45  43  93 NE7       30.10S VSB 3/4
BLYTHEVILLE    CLOUDY    55  52  89 SE8       30.12F
$$

ARZ022-023-033-042-044-161500-
CENTRAL ARKANSAS

CITY           SKY/WX    TMP DP  RH WIND       PRES   REMARKS
LITTLE ROCK    FOG       48  48 100 SE9       30.06F VSB 1/2
N LITTLE ROCK    N/A     48  48  98 SE7       30.07F
JACKSONVILLE   FOG       50  50 100 SE7       30.05F VSB 3/4
SEARCY         LGT RAIN  47  47 100 E6        30.10F FOG
HOT SPRINGS    LGT RAIN  54  54 100 E12       30.01F FOG
RUSSELLVILLE   CLOUDY    48  47  96 E8        30.00F FOG
CLINTON        LGT RAIN  48  48 100 CALM      30.05S
$$

ARZ036-161500-
EAST ARKANSAS

CITY           SKY/WX    TMP DP  RH WIND       PRES   REMARKS
WEST MEMPHIS   CLOUDY    55  55 100 SE9       30.12R
$$

ARZ050-053-066-070-073-161500-
SOUTHWEST ARKANSAS

CITY           SKY/WX    TMP DP  RH WIND       PRES   REMARKS
ARKADELPHIA    LGT RAIN  59  59 100 SE7       30.01F
CAMDEN         LGT RAIN  59  57  94 SE10      30.04F
TEXARKANA      CLOUDY    63  32  31 S15G21    29.98R
EL DORADO      LGT RAIN  61  60  97 SE9       30.05F
DE QUEEN       CLOUDY    63  63 100 S13G23    29.92S
$$

ARZ056-057-069-161500-
SOUTHEAST ARKANSAS

CITY           SKY/WX    TMP DP  RH WIND       PRES   REMARKS
PINE BLUFF     CLOUDY    52  52 100 SE12      30.07F FOG
STUTTGART      CLOUDY    54  48  82 SE8       30.10F
MONTICELLO     CLOUDY    59  58  96 SE5       30.10S

$$






USA.gov is the U.S. government's official web portal to all federal, state and local government web resources and services.